EW5546 Weather Reports


time (UTC)temp
C
wind
direction
speed
KPH
gust
KPH
rain 1hr
cm
rain 24hr
cm
rain mn
cm
humidity
%
barometer
mb
20260903190054 20 203 0.0 1.6 0.00 0.00 0.00 52 1014.0
20260903185022 20 0.0 0.0 0.00 0.00 0.00 51 1014.0
20260903184024 20 0.0 0.0 0.00 0.00 0.00 50 1014.0
20260903183104 20 0.0 0.0 0.00 0.00 0.00 49 1014.0
20260903182016 20 203 0.0 1.6 0.00 0.00 0.00 48 1014.0
20260903181106 20 215 1.6 3.2 0.00 0.00 0.00 47 1014.0
20260903180015 21 241 1.6 3.2 0.00 0.00 0.00 46 1014.0
20260903175022 21 203 0.0 1.6 0.00 0.00 0.00 47 1014.0
20260903174038 21 0.0 0.0 0.00 0.00 0.00 46 1014.0
20260903173025 21 0.0 0.0 0.00 0.00 0.00 45 1014.0
20260903172026 21 225 0.0 1.6 0.00 0.00 0.00 45 1013.0
20260903171016 21 225 0.0 1.6 0.00 0.00 0.00 44 1013.5
20260903170022 21 0.0 0.0 0.00 0.00 0.00 44 1014.0
20260903165026 21 0.0 0.0 0.00 0.00 0.00 44 1014.0
20260903164022 21 203 1.6 1.6 0.00 0.00 0.00 43 1014.0
20260903163022 21 236 0.0 1.6 0.00 0.00 0.00 43 1014.0
20260903162025 22 214 0.0 1.6 0.00 0.00 0.00 42 1014.0
20260903161018 22 212 0.0 1.6 0.00 0.00 0.00 42 1014.0
20260903160016 22 218 0.0 1.6 0.00 0.00 0.00 42 1014.0
20260903155025 22 248 0.0 1.6 0.00 0.00 0.00 42 1014.0
20260903154015 22 216 1.6 1.6 0.00 0.00 0.00 42 1014.0
20260903153022 22 229 1.6 3.2 0.00 0.00 0.00 42 1014.0
20260903152023 22 234 1.6 3.2 0.00 0.00 0.00 41 1014.0
20260903151020 22 213 1.6 1.6 0.00 0.00 0.00 41 1014.0
20260903150022 23 0.0 0.0 0.00 0.00 0.00 40 1014.0
20260903145017 23 203 1.6 3.2 0.00 0.00 0.00 40 1014.0
20260903144023 23 220 1.6 1.6 0.00 0.00 0.00 39 1014.0
20260903143022 23 170 1.6 1.6 0.00 0.00 0.00 39 1014.0
20260903142025 24 230 1.6 3.2 0.00 0.00 0.00 38 1014.0
20260903141039 25 84 3.2 6.4 0.00 0.00 0.00 38 1014.0
20260903140022 25 236 1.6 1.6 0.00 0.00 0.00 38 1014.0
20260903135022 25 214 1.6 3.2 0.00 0.00 0.00 39 1014.0
20260903134022 25 222 1.6 3.2 0.00 0.00 0.00 38 1014.0
20260903133023 25 242 1.6 3.2 0.00 0.00 0.00 39 1014.0
20260903132024 25 202 1.6 3.2 0.00 0.00 0.00 40 1014.0
20260903131023 24 129 3.2 4.8 0.00 0.00 0.00 40 1014.9
20260903130025 24 353 3.2 8.0 0.00 0.00 0.00 40 1015.0
20260903124017 23 60 3.2 6.4 0.00 0.00 0.00 40 1015.0
20260903123024 23 218 3.2 4.8 0.00 0.00 0.00 41 1015.0
20260903122022 23 76 1.6 4.8 0.00 0.00 0.00 42 1015.0
20260903121024 23 79 3.2 4.8 0.00 0.00 0.00 41 1015.0
20260903120018 22 44 1.6 3.2 0.00 0.00 0.00 42 1015.0
20260903115022 22 68 1.6 6.4 0.00 0.00 0.00 42 1015.0
20260903114022 22 79 3.2 6.4 0.00 0.00 0.00 42 1015.0
20260903113016 22 302 3.2 6.4 0.00 0.00 0.00 42 1015.0
20260903112022 22 92 3.2 8.0 0.00 0.00 0.00 42 1016.1
20260903111015 23 193 1.6 4.8 0.00 0.00 0.00 43 1016.1
20260903110015 22 206 1.6 3.2 0.00 0.00 0.00 43 1016.1
20260903105022 22 219 1.6 3.2 0.00 0.00 0.00 43 1016.1
20260903104023 22 224 3.2 4.8 0.00 0.00 0.00 43 1016.1
20260903103040 22 77 3.2 4.8 0.00 0.00 0.00 43 1016.1
20260903102024 22 223 3.2 3.2 0.00 0.00 0.00 44 1016.1
20260903101022 22 194 1.6 3.2 0.00 0.00 0.00 45 1016.1
20260903100022 22 249 1.6 3.2 0.00 0.00 0.00 45 1016.1
20260903095042 22 3 3.2 6.4 0.00 0.00 0.00 46 1016.1
20260903094022 21 23 3.2 4.8 0.00 0.00 0.00 47 1016.1
20260903093042 21 45 1.6 4.8 0.00 0.00 0.00 48 1016.1
20260903092024 21 34 1.6 6.4 0.00 0.00 0.00 48 1016.1
20260903091022 21 201 1.6 3.2 0.00 0.00 0.00 49 1016.6
20260903090118 21 218 3.2 3.2 0.00 0.00 0.00 48 1017.1
20260903085042 21 218 1.6 3.2 0.00 0.00 0.00 51 1017.1
20260903084023 21 253 1.6 3.2 0.00 0.00 0.00 53 1017.1
20260903083043 20 268 1.6 3.2 0.00 0.00 0.00 54 1017.1
20260903082021 20 198 1.6 1.6 0.00 0.00 0.00 55 1017.1
20260903081022 20 248 0.0 1.6 0.00 0.00 0.00 56 1016.6
20260903080042 20 58 1.6 3.2 0.00 0.00 0.00 57 1016.1
20260903075026 20 248 0.0 1.6 0.00 0.00 0.00 59 1016.1
20260903074025 20 210 1.6 3.2 0.00 0.00 0.00 59 1016.1
20260903073022 20 175 3.2 3.2 0.00 0.00 0.00 59 1016.1
20260903072019 19 225 0.0 1.6 0.00 0.00 0.00 61 1016.1
20260903071026 19 214 0.0 1.6 0.00 0.00 0.00 61 1016.1
20260903070018 18 203 0.0 3.2 0.00 0.00 0.00 62 1016.1
20260903065017 18 225 0.0 1.6 0.00 0.00 0.00 63 1016.1
20260903064031 18 203 0.0 1.6 0.00 0.00 0.00 63 1016.1
20260903063022 18 217 1.6 1.6 0.00 0.00 0.00 64 1016.1
20260903062045 18 248 0.0 1.6 0.00 0.00 0.00 64 1016.1
20260903061022 17 0.0 0.0 0.00 0.00 0.00 65 1016.1
20260903060022 17 203 0.0 1.6 0.00 0.00 0.00 67 1016.1
20260903055036 17 0.0 0.0 0.00 0.00 0.00 68 1017.1
20260903054022 17 0.0 0.0 0.00 0.00 0.00 69 1017.1
20260903053023 16 0.0 0.0 0.00 0.00 0.00 71 1017.1
20260903052023 16 0.0 0.0 0.00 0.00 0.00 71 1016.1
20260903051022 16 0.0 0.0 0.00 0.00 0.00 70 1016.6
20260903050022 16 0.0 0.0 0.00 0.00 0.00 70 1017.1
20260903045015 16 0.0 0.0 0.00 0.00 0.00 70 1017.1
20260903044024 16 0.0 0.0 0.00 0.00 0.00 69 1017.1
20260903043022 16 0.0 0.0 0.00 0.00 0.00 69 1017.1
20260903042022 16 0.0 0.0 0.00 0.00 0.00 69 1017.1
20260903041044 16 0.0 0.0 0.00 0.00 0.00 69 1017.1
20260903040023 16 0.0 0.0 0.00 0.00 0.00 69 1017.1
20260903035106 16 0.0 0.0 0.00 0.00 0.00 68 1017.1
20260903034022 16 0.0 0.0 0.00 0.00 0.00 68 1017.1
20260903033022 16 0.0 0.0 0.00 0.00 0.00 69 1017.1
20260903032022 16 0.0 0.0 0.00 0.00 0.00 70 1017.1
20260903031025 16 0.0 0.0 0.00 0.00 0.00 69 1017.1
20260903030024 16 0.0 0.0 0.00 0.00 0.00 69 1017.1
20260903025022 16 0.0 0.0 0.00 0.00 0.00 69 1017.1
20260903024046 16 0.0 0.0 0.00 0.00 0.00 69 1017.1
20260903023022 16 0.0 0.0 0.00 0.00 0.00 68 1017.1
20260903022022 16 0.0 0.0 0.00 0.00 0.00 70 1017.1
20260903021018 16 0.0 0.0 0.00 0.00 0.00 69 1017.1
20260903020043 16 0.0 0.0 0.00 0.00 0.00 69 1017.1
20260903015025 16 0.0 0.0 0.00 0.00 0.00 69 1017.1
20260903014022 16 0.0 0.0 0.00 0.00 0.00 69 1017.1
20260903013022 16 0.0 0.0 0.00 0.00 0.00 70 1017.1
20260903012022 16 0.0 0.0 0.00 0.00 0.00 70 1017.1
20260903011022 16 0.0 0.0 0.00 0.00 0.00 70 1017.1
20260903010052 16 0.0 0.0 0.00 0.00 0.00 70 1017.1
20260903004023 16 0.0 0.0 0.00 0.00 0.00 70 1017.1
20260903003057 16 0.0 0.0 0.00 0.00 0.00 69 1017.1
20260903002022 16 0.0 0.0 0.00 0.00 0.00 69 1017.1
20260903001023 16 0.0 0.0 0.00 0.00 0.00 68 1017.1
20260903000033 16 0.0 0.0 0.00 0.00 0.00 68 1017.1
20260902235024 16 0.0 0.0 0.00 0.00 0.00 68 1017.1
20260902234025 16 0.0 0.0 0.00 0.00 0.00 68 1017.1
20260902233023 16 0.0 0.0 0.00 0.00 0.00 67 1017.1
20260902232024 16 0.0 0.0 0.00 0.00 0.00 67 1017.1
20260902231026 -17 0.0 0.0 0.00 0.00 0.00 1017.1
20260902225023 -17 0.0 0.0 0.00 0.00 0.00 1017.1
20260902224024 16 0.0 0.0 0.00 0.00 0.00 67 1017.1
20260902223023 16 0.0 0.0 0.00 0.00 0.00 67 1017.1
20260902222102 16 0.0 0.0 0.00 0.00 0.00 66 1017.1
20260902221023 16 0.0 0.0 0.00 0.00 0.00 66 1017.1
20260902220043 16 0.0 0.0 0.00 0.00 0.00 65 1017.1
20260902215044 16 0.0 0.0 0.00 0.00 0.00 65 1017.1
20260902214028 16 0.0 0.0 0.00 0.00 0.00 64 1017.1
20260902213024 16 0.0 0.0 0.00 0.00 0.00 63 1017.1
20260902212024 16 0.0 0.0 0.00 0.00 0.00 63 1017.1
20260902211027 16 0.0 0.0 0.00 0.00 0.00 62 1017.1
20260902210024 16 0.0 0.0 0.00 0.00 0.00 62 1017.1
20260902205025 17 0.0 0.0 0.00 0.00 0.00 61 1017.1
20260902204105 17 0.0 0.0 0.00 0.00 0.00 60 1017.1
20260902203026 17 0.0 0.0 0.00 0.00 0.00 60 1017.1
20260902202024 17 0.0 0.0 0.00 0.00 0.00 59 1017.1
20260902201022 17 0.0 0.0 0.00 0.00 0.00 59 1017.1
20260902200024 17 0.0 0.0 0.00 0.00 0.00 58 1017.1
20260902195024 17 0.0 0.0 0.00 0.00 0.00 57 1017.1
20260902194045 17 0.0 0.0 0.00 0.00 0.00 56 1017.1
20260902193037 17 0.0 0.0 0.00 0.00 0.00 55 1017.1
20260902192022 -17 0.0 0.0 0.00 0.00 0.00 1017.1
20260902191018 18 0.0 0.0 0.00 0.00 0.00 53 1017.1